OpenBCM V1.08-5-g2f4a (Linux)

Packet Radio Mailbox

IZ3LSV

[San Dona' di P. JN]

 Login: GUEST





  
I0OJJ  > KEPS     18.11.25 03:04l 308 Lines 14709 Bytes #151 (0) @ AMSAT
BID : ORB25322.1
Read: GUEST
Subj: 2Line Orbital Elements 25322.AMSAT
Path: IZ3LSV<ED1ZAC<XQ8FGC<CX2SA<EA2RCF<I0OJJ
Sent: 251118/0021z @:I0OJJ.ITA.EU [Rome] obcm1.08-11-2-gbfe9
From: I0OJJ @ I0OJJ.ITA.EU (Gustavo)
To:   KEPS @ AMSAT
X-Info: This message was generated automatically


QST de W1STR

AMSAT Orbital Elements for Amateur Satellites in TLE Format
From Orbital Analysis Office
New England Sci-Tech STEM Education Center
Natick MA November 18, 2025
To all radio amateurs


These element sets describe the orbits of various satellites 
in use by the amateur radio community. For details see:
www.amsat.org/keplerian-elements-formats/

A daily update of element sets is available at:
www.amsat.org/tle/daily-bulletin.txt
or without bulletin text:
www.amsat.org/tle/dailytle.txt


AO-07
1 07530U 74089B   25321.78320366 -.00000024  00000-0  14343-3 0  9996
2 07530 101.9975 327.7877 0012217 173.6831 359.7485 12.53693489334025
UO-11
1 14781U 84021B   25321.61137593  .00002122  00000-0  22552-3 0  9990
2 14781  97.7771 285.0379 0008197 152.9072 207.2575 14.90023248225613
AO-27
1 22825U 93061C   25321.61502388  .00000235  00000-0  10669-3 0  9999
2 22825  98.7183  23.8186 0008432   8.6933 351.4394 14.30863794676745
FO-29
1 24278U 96046B   25321.63488014  .00000027  00000-0  66768-4 0  9991
2 24278  98.5480 194.1363 0348900 285.2617  71.0209 13.53260719444559
GO-32
1 25397U 98043D   25321.69926877  .00000182  00000-0  98665-4 0  9996
2 25397  98.9898 304.3361 0002297  98.0807 262.0631 14.24367243421228
ISS
1 25544U 98067A   25321.57802007  .00016042  00000-0  29087-3 0  9994
2 25544  51.6331 267.0194 0004182  81.0565 279.0897 15.49761331538952
NO-44
1 26931U 01043C   25321.72960580  .00000410  00000-0  18397-3 0  9995
2 26931  67.0513  71.1538 0007278 271.3042  88.7226 14.31835281260178
SO-50
1 27607U 02058C   25321.70827231  .00002597  00000-0  32890-3 0  9998
2 27607  64.5548  62.9537 0070776 301.2404  58.1779 14.82254394233107
CO-55
1 27844U 03031E   25321.29769977  .00000682  00000-0  31498-3 0  9995
2 27844  98.6772 327.5284 0010704  82.1937 278.0457 14.24149116161519
CO-57
1 27848U 03031J   25321.46276705  .00000578  00000-0  27337-3 0  9991
2 27848  98.6801 327.5737 0010589  97.6294 262.6088 14.23462100161257
RS-22
1 27939U 03042A   25321.85990470  .00002069  00000-0  33123-3 0  9996
2 27939  98.3363 135.4004 0010654 214.2833 277.5838 14.72869671184431
CO-58
1 28895U 05043F   25321.83156661  .00003040  00000-0  49450-3 0  9995
2 28895  98.2709 108.4931 0014871 152.4733 207.7264 14.71759026 70659
CO-65
1 32785U 08021C   25321.86905719  .00009386  00000-0  63656-3 0  9999
2 32785  97.8056 294.6172 0010664  35.9152 324.2790 15.06615637953346
CO-66
1 32791U 08021J   25321.70135867  .00022622  00000-0  93175-3 0  9995
2 32791  97.7427 306.0114 0003463  17.6351 342.5005 15.24114841954989
RS-30
1 32953U 08025A   25321.84271622  .00000046  00000-0  26083-3 0  9994
2 32953  82.4994 126.9089 0019767  54.5731 305.7191 12.43170959793433
SRMSAT
1 37841U 11058D   25321.51814678  .00000550  00000-0  15492-3 0  9995
2 37841  19.9719 260.6038 0011786  36.1920 119.3963 14.11499699727876
ZACUBE-1
1 39417U 13066B   25321.82460326  .00008089  00000-0  66571-3 0  9997
2 39417  97.7998 278.3424 0040742 230.6127 129.1485 14.98720773649044
Delfi-N3xt
1 39428U 13066N   25321.71820912  .00010413  00000-0  98827-3 0  9991
2 39428  97.8324 237.7811 0079353 187.4584 172.5460 14.91329228643069
GOMX-1
1 39430U 13066Q   25321.82722986  .00002952  00000-0  45478-3 0  9991
2 39430  97.6616 170.5107 0131723  36.4336 324.5746 14.68427634638888
LO-74
1 39440U 13066AA  25321.78705273  .00008603  00000-0  83314-3 0  9997
2 39440  97.8664 265.5031 0060603   9.4056 350.8282 14.91584429645452
AO-73
1 39444U 13066AE  25321.86625447  .00010845  00000-0  74750-3 0  9999
2 39444  97.8011 284.8561 0038457 199.0388 160.9402 15.05407987647826
DTUSAT-2
1 40030U 14033W   25320.78388847  .00012412  00000-0  74321-3 0  9993
2 40030  98.0726 300.8050 0006733 231.7458 128.3165 15.11151078620561
EO-80
1 40032U 14033Y   25321.19303228  .00013197  00000-0  78796-3 0  9992
2 40032  98.0614 300.6668 0008182 162.0896 198.0622 15.11228457620607
LILACSAT-2
1 40908U 15049K   25321.85273623  .00019332  00000-0  42905-3 0  9990
2 40908  97.4944 346.4854 0006567 308.6894  51.3765 15.43742073563069
IO-86
1 40931U 15052B   25151.18580175  .00001241  00000-0  78118-4 0  9996
2 40931   6.0006  24.0987 0012733 338.8432  21.1169 14.78805930523159
Horyu-4
1 41340U 16012D   25321.81308311  .00055042  00000-0  10156-2 0  9991
2 41340  30.9931 120.7404 0005526 343.2181  16.8284 15.47807878537680
Lapan A3
1 41603U 16040E   25321.86495126  .00005538  00000-0  18533-3 0  9993
2 41603  97.1422 320.3324 0012399  58.7236 301.5219 15.31282316522454
CAS-2T
1 41847U 16066G   25321.68020448  .00001699  00000-0  24685-3 0  9991
2 41847  98.4070  34.6651 0344973  51.0192 312.1196 14.44053115474261
TechnoSat
1 42829U 17042E   25321.70046588  .00005269  00000-0  39256-3 0  9990
2 42829  97.4036 122.9960 0020513  94.9482 265.4087 15.03145686454916
AO-91
1 43017U 17073E   25321.57040097  .00015647  00000-0  74745-3 0  9991
2 43017  97.4973 188.3485 0162707 337.4825  21.9316 15.08097555433443
S-Net D
1 43186U 18014G   25321.31057958  .00009251  00000-0  51361-3 0  9993
2 43186  97.5485 222.6122 0010123  40.9201 319.2789 15.13914447426675
S-Net B
1 43187U 18014H   25321.71481487  .00008455  00000-0  46994-3 0  9997
2 43187  97.5493 222.9920 0010646  34.9449 325.2479 15.13897119426737
S-Net A
1 43188U 18014J   25321.70696507  .00008339  00000-0  46320-3 0  9992
2 43188  97.5498 223.1569 0010554  35.6894 324.5041 15.13926019426734
S-Net C
1 43189U 18014K   25321.65160263  .00008697  00000-0  48320-3 0  9991
2 43189  97.5517 223.1432 0011789  28.1905 331.9963 15.13890591425275
Ten-Koh
1 43677U 18084G   25321.45781899  .00005440  00000-0  42438-3 0  9999
2 43677  98.0687 140.0664 0009201  96.1558 264.0714 15.01573797384378
PO-101
1 43678U 18084H   25321.82589046  .00003102  00000-0  25936-3 0  9998
2 43678  98.1043 144.2888 0007476 107.3732 252.8308 14.99267213384532
QO-100
1 43700U 18090A   25321.81169715  .00000000  00000-0  00000+0 0  9992
2 43700   0.0169 303.1608 0002357 335.2286  96.7074  1.00270813 25551
MinXSS-2
1 43758U 18099A   25321.63518359  .00029715  00000-0  93479-3 0  9996
2 43758  97.4842  28.6891 0009094 310.2091  49.8355 15.32870124381576
AO-95
1 43770U 18099N   25321.80090403  .00015345  00000-0  69155-3 0  9992
2 43770  97.4721  18.2799 0010143  19.1760 340.9855 15.21089630381025
SNUSat 2
1 43782U 18099AA  25321.60885304  .00012802  00000-0  63778-3 0  9995
2 43782  97.4403  13.4533 0010153 321.9621  38.0895 15.17655706380890
SnugLite
1 43784U 18099AC  25321.59698308  .00016004  00000-0  71419-3 0  9990
2 43784  97.4211  13.4035 0002311 342.4779  17.6376 15.21458727381083
ITASat 1
1 43786U 18099AE  25321.61258294  .00010606  00000-0  56108-3 0  9991
2 43786  97.4374  12.4537 0013885  16.1248 344.0424 15.15550374380821
EAGLET 1
1 43790U 18099AJ  25321.60509250  .00006896  00000-0  41851-3 0  9991
2 43790  97.4571  11.7907 0011597   4.9087 355.2255 15.10775851380361
ESEO
1 43792U 18099AL  25321.72274535  .00002751  00000-0  20662-3 0  9994
2 43792  97.4293   2.9254 0011457 342.1381  17.9440 15.03354636380027
JO-97
1 43803U 18099AX  25321.57449219  .00020193  00000-0  79189-3 0  9991
2 43803  97.4467  19.4895 0005487 307.3113  52.7625 15.25772611381270
Suomi 100
1 43804U 18099AY  25321.42330128  .00019459  00000-0  84176-3 0  9999
2 43804  97.4532  18.0942 0010109 311.5238  48.5130 15.22439663381137
ISAT
1 43879U 18111D   25321.72962027  .00044245  00000-0  11254-2 0  9995
2 43879  97.5896 240.4778 0007531  14.0656 346.0798 15.39443638378390
UWE-4
1 43880U 18111E   25321.70774471  .00030595  00000-0  96358-3 0  9991
2 43880  97.5842 237.5731 0011254  17.2223 342.9398 15.32805859378246
Sparrow
1 43881U 18111F   25321.74872661  .00046763  00000-0  11126-2 0  9999
2 43881  97.6077 244.1065 0007960  47.7147 312.4772 15.41460019378517
Prox-1
1 44339U 19036A   25321.63905861  .00017011  00000-0  19479-2 0  9995
2 44339  23.9962  80.8856 0007645 108.8317 251.3010 14.84285938341935
Taurus 1
1 44530U 19059C   25321.83898407  .00010062  00000-0  17388-2 0  9998
2 44530  98.6217 109.3328 0008901 251.2813 108.7424 14.68585825327580
Duchifat 3
1 44854U 19089C   25321.56424188  .00437543  00000-0  19276-2 0  9996
2 44854  36.9313  35.0774 0008273  98.9236 261.2469 15.82382999328127
TO-108
1 44881U 19093C   25321.85454733  .00001792  00000-0  21064-3 0  9994
2 44881  97.7787  34.0403 0014955  64.7302 295.5462 14.86023643320029
FloripaSat 1
1 44885U 19093G   25321.84528554  .00009245  00000-0  73111-3 0  9991
2 44885  97.8071  49.9266 0012133  51.6208 308.6104 15.00809074320912
RS-44
1 44909U 19096E   25321.83986544  .00000019  00000-0  39032-4 0  9992
2 44909  82.5184 120.1559 0216524 278.5499  79.1122 12.79745474275313
SALSAT
1 46495U 20068K   25321.81105461  .00011236  00000-0  44273-3 0  9999
2 46495  97.8764 307.7534 0009656 332.9087  27.1645 15.25740054283087
CSS (TIANHE-1)
1 48274U 21035A   25321.85581539  .00026616  00000-0  33215-3 0  9991
2 48274  41.4654 167.6905 0006941 184.8185 175.2587 15.59237718260146
TUBIN
1 48900U 21059X   25321.83612119  .00277031  30413-4  91571-3 0  9993
2 48900  97.6664 146.6993 0002061 330.2118  29.9037 15.90392382245346
CUTE
1 49263U 21088D   25321.65545823  .00040037  00000-0  56085-3 0  9995
2 49263  97.4379  43.4183 0005543  14.0328 346.1080 15.56668881229394
TeikyoSat 4
1 49396U 21102B   25321.52917744  .00003047  00000-0  19916-3 0  9992
2 49396  97.3931 354.0747 0010947 305.8889  54.1323 15.08480027220802
Z-Sat
1 49399U 21102E   25321.83147153  .00006435  00000-0  33639-3 0  9990
2 49399  97.3622 358.5260 0015628 263.7322  96.2131 15.16107962221398
